FENGYUN 1C DEB, 35196

Orbit data source: Space-Track

FENGYUN 1C DEB, 35196 is space debris in SSO originally from a launch on Mon, 10 May 1999 UTC launched from the Taiyaun Space Center, China (TSC). Fengyun 1C debris stems from the Chinese weather satellite Fengyun-1C, which was intentionally destroyed by a Chinese anti-satellite missile in 2007. This event dramatically increased the amount of space debris, with thousands of trackable fragments posing hazards to satellites and human spaceflight. The Fengyun 1C debris cloud has become a focal point in discussions about space sustainability and the need for international regulations to prevent the creation of new debris.

Loading next visibility...
Identifier
35196, 1999-025DPC
Orbit
SSO
Country
Flag of CNCN / PRC
Related business
Manufacturer
Unknown
Mission
Spacecraft
Bus & Motor
Unknown
Mass
Unknown
Launch date (UTC)
1999-05-10 (27 years ago)
Launch vehicle
Unknown
Launch site
Taiyaun Space Center, China (TSC)
Object type
Payload
Rocket body
Debris
Shape & HBR
Unknown shape, 0.1 m
Radar Cross Section
Medium (>0.1 m² and <1 m²)

Expand to show TLE details & history
Last TLE update: 2 days ago

TLE from 2 days ago
0 FENGYUN 1C DEB
1 35196U 99025DPC 26253.98626538  .00000856  00000-0  33440-3 0  9990
2 35196  98.5281 264.7965 0211129 268.5917 118.4066 14.20744131929993
Epoch: 2026-09-10T23:40Z
TLE epoch observation values (Epoch: 2026-09-10T23:40:13.328Z)
Latitude
28.79304°
Longitude
-84.97765°
Altitude
901.188 km
Speed
7.365 km/s
True Right ascension
17h 20m 22s
True Declination
28° 39' 04"
Sunlit
Object was in daylight at epoch
Visualization orbit readout
Latitude
Unknown
Longitude
Unknown
Altitude
Unknown
Speed
Unknown
Apparent Right ascension
Unknown
Apparent Declination
Unknown
Sunlit
N/A
Visualization observer readout
Local Sidereal Time
16:03:49
Azimuth
Unknown
Elevation
Unknown
Doppler factor
Unknown
Orbital elements
Apogee altitude
971.958 km
Perigee altitude
668.011 km
Semi-major axis
7,198.121 km
Eccentricity
0.02111
Inclination
98.5281°
RAAN
264.7965°
Arg. of periapsis
268.5917°
True anomaly
120.50778°
Mean anomaly
118.4066°
Eccentric anomaly
119.45987°
Mean motion
3.55398 °/min
Orbital period
101.3 mins
BSTAR
0.0003344
Loading maneuver chart data...
Computing Atmospheric mass density...

Documentation

Showing up to 5 results
|